Погода в Гдове

Погода в Гдове : погода сейчас, прогноз погоды и архив. Всё, что Вы хотите узнать о погоде в Гдове!

Хотите узнать прогноз погоды в Гдове? Тогда Вам сюда: Погода в Гдове

Поиск расширенной информации на нашем сайте:

Другие новости

Новости СМИ2

Главная страница сайта

Новости сайта

03.07.2017

Напоминаем, что на нашем специализированном сайте Метеоцентр.Азия вы можете получить высокодетализированные автоматические прогнозы погоды по пунктам России, СНГ и мира в авиационном формате (включающие направление и скорость ветра, видимость, явления погоды, количество и форму облачности, нижнюю и верхнюю границу облачности).

Рекомендуем: купить светильник светодиодный потолочный

Погода в Гдове - сегодня

Время (UTC), дата Ветер
(°,м/с) 
Видим.   Явления Облачность Т
(°С)
Тd
(°С)
f(%) Тe
(°С)
Pmin
(гПа)
dP
(гПа)
Po
(мм)
O2
(г/м3)
Тmin Tmax R s Состояние
почвы
15 14.10.17 190 (Ю) 10 км  в посл. час ливневой дождь  9/9 600 м кучево-дожд. 
[Cb calv]
+6.9 +4.4 84 +6  1011.1  -1.2  755  296      0.0     
18 14.10.17 150 (ЮВ) 10 км  слаб. ливневой дождь  10/10 600 м кучево-дожд. 
[Cb cap]
+6.1 +5.3 95 +5  1008  -3.1  752  296    +9.1  0.4     
21 14.10.17 200 (Ю) 10 км  слаб. ливневой дождь  10/10 600 м кучево-дожд. 
[Cb cap]
+7.5 +6.8 95 +6  1004.8  -3.1  750  293           
00 15.10.17 290 (З) 4{10}  10 км  {ливн. осадки}  10/10 600 м кучево-дожд. 
[Cb calv]
+9.6 +7.6 87 +9  1003.5  -1.2  749  290           
03 15.10.17 300 (СЗ) 6-11{12}  10 км    10/10 600 м кучево-дожд. 
[Cb calv]
+8.9 +6.7 86 +7  1005.3  1.7  750  292  +6.1       
06 15.10.17 320 (СЗ) 5-11{12}  10 км    9/9 600 м кучево-дожд. 
[Cb calv]
+8.4 +5 79 +7  1007.8  2.5  752  293  +6.1       
09 15.10.17 330 (СЗ) 4{12}  20000 м    9/9 300 м 
[St]
+9.1 +5.2 77 +8  1011.3  3.5  755  293           
12 15.10.17 290 (З) 20000 м    10/3 600 м верхняя 
[Cu med, cong|Ci fib]
+10.6 +6.7 77 +10  1013.3  2.1  756  292           
15 15.10.17 300 (СЗ) 20000 м    10/3 600 м средняя, верхняя 
[Cu hum|Ac trans|Ci fib]
+10.4 +6.9 79 +11  1014.5  1.2  757  293           
18 15.10.17 330 (СЗ) 20000 м    9/8 600 м средняя 
[Sc|Ac trans]
+9.2 +5.6 78 +9  1016.2  1.7  758  295    +11.6       
21 15.10.17 270 (З) 20000 м    3/3 600 м 
[Sc]
+6.4 +5.4 93 +7  1017.4  759  298           
00 16.10.17 240 (ЮЗ) 20000 м    8/8 600 м 
[Sc]
+7.4 +6.5 94 +7  1017.3  759  297           
03 16.10.17 190 (Ю) 10 км    10/10 600 м кучево-дожд. 
[Cb calv]
+7.8 +7.2 96 +7  1015.5  -1.9  758  296  +6.3         
06 16.10.17 180 (Ю) 10 км  в посл. час ливневой дождь  10/10 600 м кучево-дожд. 
[Cb calv]
+8.5 +7.9 96 +7  1013.2  -2.3  756  294  +6.3    0.6     
09 16.10.17 210 (ЮЗ) 6{10}  10 км  слаб. ливневой дождь  10/10 600 м кучево-дожд. 
[Cb cap]
+9.8 +8.9 94 +8  1011.5  -1.6  755  292           
12 16.10.17 200 (Ю) 10 км  слаб. ливневой дождь  10/10 300 м кучево-дожд. 
[Cb cap]
+10.9 +10.1 95 +10  1008.8  -2.7  753  290           
15 16.10.17 220 (ЮЗ) 4000 м  дымка{ливн. осадки}  10/10 300 м 
[St]
+11.3 +10.6 95 +13  1008.1  -0.6  752  289         
18 16.10.17 250 (З) 10 км  {ливн. осадки}  9/9 600 м 
[Sc]
+11.7 +10.5 92 +13  1008.7  0.6  753  289    +11.7  0.5     
21 16.10.17 300 (СЗ) 10 км    9/9 600 м 
[Sc]
+10.4 +7.7 83 +10  1011.3  2.5  755  292           
00 17.10.17 290 (З) 20000 м    10/6 600 м верхняя 
[Sc|Ci fib]
+8.2 +5.2 81 +8  1013.5  2.2  756  295           
03 17.10.17 280 (З) 10 км    10/10 600 м кучево-дожд. 
[Cb calv]
+7.6 +4.7 82 +6  1014.7  1.3  757  296  +7.6         
06 17.10.17 280 (З) 20000 м    10/5 600 м средняя, верхняя 
[Sc|Ac trans|Ci sp]
+8.1 +5 81 +7  1015.6  0.8  758  296  +7.4         
09 17.10.17 230 (ЮЗ) 20000 м    10/10 600 м 
[Sc]
+8.6 +5.7 82 +9  1015.5  0.1  758  295           
12 17.10.17 220 (ЮЗ) 10 км  слаб. ливневой дождь  10/10 600 м кучево-дожд. 
[Cb cap]
+7.9 +6.8 93 +7  1013.9  -1.6  757  295           
15 17.10.17 190 (Ю) 10 км  {ливн. осадки}  10/10 300 м 
[St]
+8.7 +7.9 95 +8  1010  -3.9  754  293         
Время (UTC), дата Ветер
(°,м/с) 
Видим.   Явления Облачность Т
(°С)
Тd
(°С)
f(%) Тe
(°С)
Pmin
(гПа)
dP
(гПа)
Po
(мм)
O2
(г/м3)
Тmin Tmax R s Состояние
почвы

Для получения пояснительной информации подведите курсор к названию столбца.

ПОГОДА в Гдове - архив

Всё, что Вы хотите узнать о погоде в Гдове - удобно и подробно!

Выберите нужную дату (начиная с 1 января 2015* года) и нажмите кнопку "Найти".
Будут отображены архивные сводки погоды по пункту Гдов, начиная с указанной даты.


Отображать данные в формате CSV (для использования в таблицах Excel)


Внимание! Наш архив погоды предназначен исключительно для личного некоммерческого использования в познавательных целях. Если Вам необходимы официальные справки о состоянии погоды (для производственных, юридических, коммерческих и т.п. целей), обращайтесь в органы Росгидромета.

*Примечание: данная дата относится к архиву по метеостанциям СССР (Россия, СНГ, Балтия).
Архив по метеостанциям Зарубежной Европы и Азии (кроме Китая) хранится 10 дней, по другим регионам земного шара (Китай, Африка, Америка, Австралия, Океания) - 1 день.

Гдов - район местоположения метеостанции


Название, широта, долгота, высота метеостанции:
Гдов 58.7°ш. 27.8°д. 40 м над ур. моря [Российская Федерация]

Дополнительная информация

В oтличие oт бoльшинства пoгoдных сайтoв мы публикуем пoдрoбную метеoинфoрмацию в детальнoм прoфессиoнальнoм фoрмате.

Характеристики температуры и влажнoсти вoздуха измеряются на высoте 2 м в тени вдали oт зданий и деревьев.
Скoрoсть ветра измеряется на высoте 10 м (на урoвне рoста челoвека скoрoсть ветра ниже в 1.5-2 раза). Если метеoстанция нахoдится в гoрoде или в лесу, тo скoрoсть ветра занижена на 2-4 м/с пo сравнению с oткрытым местoм. Скoрoсть ветра над акватoриями крупных рек и oзёр, а также на вершинах хoлмoв на 2-5 м/с выше, чем в oбычных услoвиях.
Атмoсфернoе давление в разных тoчках местнoсти мoжет значительнo oтличаться oт давления на метеoстанции, в зависимoсти oт услoвий рельефа (при пoдъёме на 10 м давление пoнижается примернo на 1 мм рт.ст.).